Flag for Ireland Weather past 2 weeks in Limerick, Ireland

Now
61 °F

Broken clouds.


Feels Like: 61 °F
Forecast: 56 / 63 °F
Wind: 21 mph from Southeast

Location: Shannon Airport

Current Time: Aug 2, 2015 at 11:19:28 AM

Latest Report: Aug 2, 2015 at 11:00 AM


Visibility: N/A

Pressure: 29.71 "Hg

Humidity: 77%

Dew point: 54 °F

Location of LimerickLocation

Historic Weather in Limerick — Graph

°F

Limerick temperature yesterday

Maximum temperature yesterday: 63 °F (at 1:00 PM)
Minimum temperature yesterday: 52 °F (at 1:00 AM)
Average temperature yesterday: 57 °F

Past Weeks' High & Low Weather Summary

 TemperatureHumidityPressure
High64 °F (Jul 18, 12:30 PM)100% (Jul 18, 10:00 PM)30.18 "Hg (Jul 18, 10:00 PM)
Low45 °F (Jul 25, 5:00 AM)52% (Jul 23, 5:00 PM)29.33 "Hg (Jul 26, 10:30 AM)
Average57 °F80%29.86 "Hg
* Reported Jul 18 10:00 AM — Aug 2 10:00 AM, Limerick, Weather by CustomWeather, © 2015

Note: Actual official high and low records may vary slightly from our data, if they occured in-between our weather recording intervals... More about our weather records

Advertising

Limerick weather history for previous 24 hours

 ConditionsComfort  
Time TempWeatherWind HumidityBarometerVisibility
10:00 AM
Sun, Aug 2
59 °FMore clouds than sun.17 mph82%29.77 "HgN/A
9:30 AM59 °FBroken clouds.17 mph88%29.77 "HgN/A
9:00 AM59 °FBroken clouds.20 mph88%29.77 "HgN/A
8:30 AM59 °FMore clouds than sun.16 mph88%29.77 "HgN/A
8:00 AM59 °FMore clouds than sun.15 mph88%29.77 "HgN/A
7:30 AM57 °FLight rain. Broken clouds.16 mph94%29.77 "HgN/A
7:00 AM57 °FBroken clouds.14 mph94%29.80 "HgN/A
6:30 AM57 °FLight rain. Partly cloudy.15 mph94%29.80 "HgN/A
6:00 AM57 °FLight rain. Partly cloudy.14 mph94%29.80 "HgN/A
5:30 AM55 °FPassing clouds.14 mph100%29.80 "HgN/A
5:00 AM55 °FLight rain. Partly cloudy.14 mph94%29.83 "HgN/A
4:30 AM55 °FLight rain. Passing clouds.14 mph100%29.83 "HgN/A
4:00 AM55 °FLight rain. Partly cloudy.14 mph100%29.83 "HgN/A
3:30 AM55 °FLight rain. Partly cloudy.12 mph100%29.86 "HgN/A
3:00 AM55 °FLight rain. Partly cloudy.9 mph94%29.86 "HgN/A
2:30 AM55 °FLight rain. Partly cloudy.10 mph94%29.89 "HgN/A
2:00 AM54 °FLight rain. Partly cloudy.10 mph100%29.89 "HgN/A
1:30 AM54 °FLight rain. Partly cloudy.10 mph100%29.89 "HgN/A
1:00 AM54 °FLight rain. Partly cloudy.8 mph100%29.89 "HgN/A
12:30 AM55 °FLight rain. Passing clouds.10 mph94%29.89 "HgN/A
12:00 AM55 °FLight rain. Passing clouds.9 mph94%29.92 "HgN/A
11:00 PM
Sat, Aug 1
55 °FLight rain. Passing clouds.9 mph88%29.92 "HgN/A
10:30 PM57 °FLight rain. Partly cloudy.7 mph88%29.92 "HgN/A
10:00 PM57 °FLight rain. Overcast.7 mph88%29.92 "HgN/A
9:30 PM57 °FPartly sunny.5 mph88%29.92 "HgN/A
9:00 PM55 °FPartly sunny.5 mph94%29.92 "HgN/A
8:30 PM55 °FLight rain. Mostly cloudy.5 mph94%29.92 "HgN/A
8:00 PM55 °FDrizzle. Broken clouds.8 mph88%29.92 "HgN/A
7:30 PM57 °FLight rain. Broken clouds.6 mph82%29.92 "HgN/A
7:00 PM59 °FLight rain. Mostly cloudy.7 mph72%29.92 "HgN/A
6:30 PM59 °FLight rain. Partly sunny.8 mph68%29.92 "HgN/A
6:00 PM61 °FLight rain. Partly sunny.8 mph63%29.92 "HgN/A
5:30 PM61 °FLight rain. Partly sunny.10 mph63%29.92 "HgN/A
5:00 PM61 °FPartly sunny.10 mph59%29.92 "HgN/A
4:30 PM63 °FBroken clouds.13 mph56%29.92 "HgN/A
4:00 PM63 °FBroken clouds.14 mph56%29.92 "HgN/A
3:30 PM63 °FBroken clouds.15 mph59%29.92 "HgN/A
3:00 PM63 °FPartly sunny.16 mph56%29.92 "HgN/A
2:30 PM63 °FScattered clouds.16 mph59%29.92 "HgN/A
2:00 PM61 °FPartly sunny.17 mph63%29.92 "HgN/A
1:30 PM61 °FBroken clouds.16 mph59%29.92 "HgN/A
1:00 PM63 °FBroken clouds.17 mph59%29.92 "HgN/A
12:30 PM61 °FPartly sunny.17 mph59%29.92 "HgN/A
12:00 PM61 °FPartly sunny.18 mph63%29.92 "HgN/A
11:30 AM59 °FBroken clouds.16 mph68%29.92 "HgN/A
11:00 AM59 °FPartly sunny.15 mph68%29.92 "HgN/A
Weather by CustomWeather, © 2015

See weather overviewHow to use our weather pages